Weather History for KEVM - July, 2013

Change the Weather History Date:

Wednesday, July 10, 2013

  Actual Average Record
Temperature  
Mean Temperature 64 °F -  
Max Temperature 75 °F 75 °F 91 °F (2005)
Min Temperature 51 °F 52 °F 37 °F (1996)
Degree Days  
Heating Degree Days 1    
Growing Degree Days 14 (Base 50)    
Moisture  
Dew Point 52 °F    
Average Humidity 69    
Maximum Humidity 94    
Minimum Humidity 41    
Precipitation  
Precipitation 0.00 in - - ()
Sea Level Pressure  
Sea Level Pressure 29.99 in    
Wind  
Wind Speed 9 mph (NW)    
Max Wind Speed 16 mph    
Max Gust Speed 24 mph    
Visibility 10 miles    
Events Thunderstorm    
Averages and records for this station are not official NWS values.
T = Trace of Precipitation, MM = Missing Value Source: NWS Daily Summary

Daily Weather History Graph

Daily Weather History Graph

Search for Another Location

Airport or City:

Trip Planner

Search our weather history database for the weather conditions in past years. The results will help you decide how hot, cold, wet, or windy it might be!

Date:

Astronomy

Jul. 10, 2013 Rise Set
Actual Time 5:24 AM CDT 9:06 PM CDT
Civil Twilight 4:44 AM CDT 9:45 PM CDT
Nautical Twilight 3:51 AM CDT 10:38 PM CDT
Astronomical Twilight 2:36 AM CDT 11:52 PM CDT
Moon 7:58 AM CDT (7/10) 10:00 PM CDT (7/10)
Length of Visible Light 17h 00m
Length of Day
15h 42m
Waxing Crescent, 5% of the Moon is Illuminated
Jul 10
Waxing Crescent
Jul 15
First Quarter
Jul 22
Full
Jul 29
Last Quarter
Aug 6
New

Hourly Weather History & Observations

Time (CDT) Temp. Dew Point Humidity Pressure Visibility Wind Dir Wind Speed Gust Speed Precip Events Conditions
12:08 AM 59.0 °F 53.6 °F 82% 29.91 in 10.0 mi NW 8.1 mph - N/A   Clear
12:29 AM 59.0 °F 53.6 °F 82% 29.91 in 10.0 mi NW 11.5 mph 18.4 mph N/A   Clear
12:48 AM 59.0 °F 53.6 °F 82% 29.91 in 10.0 mi WNW 10.4 mph - N/A   Clear
1:08 AM 59.0 °F 53.6 °F 82% 29.91 in 10.0 mi NW 12.7 mph 16.1 mph N/A   Clear
1:29 AM 59.0 °F 53.6 °F 82% 29.91 in 10.0 mi WNW 8.1 mph - N/A   Scattered Clouds
1:48 AM 59.0 °F 51.8 °F 77% 29.91 in 10.0 mi NW 9.2 mph 16.1 mph N/A   Scattered Clouds
2:08 AM 57.2 °F 51.8 °F 82% 29.92 in 10.0 mi NW 8.1 mph - N/A   Clear
2:29 AM 57.2 °F 51.8 °F 82% 29.92 in 10.0 mi NW 8.1 mph - N/A   Clear
2:48 AM 57.2 °F 51.8 °F 82% 29.92 in 10.0 mi NW 9.2 mph - N/A   Clear
3:09 AM 57.2 °F 51.8 °F 82% 29.92 in 10.0 mi NW 9.2 mph - N/A   Scattered Clouds
3:29 AM 57.2 °F 51.8 °F 82% 29.93 in 10.0 mi WNW 6.9 mph - N/A   Scattered Clouds
3:48 AM 57.2 °F 53.6 °F 88% 29.93 in 10.0 mi WNW 5.8 mph - N/A   Clear
4:09 AM 57.2 °F 53.6 °F 88% 29.93 in 10.0 mi WNW 4.6 mph - N/A   Clear
4:29 AM 57.2 °F 53.6 °F 88% 29.95 in 10.0 mi West 6.9 mph - N/A   Clear
4:48 AM 57.2 °F 53.6 °F 88% 29.95 in 10.0 mi West 9.2 mph - N/A   Clear
5:09 AM 55.4 °F 53.6 °F 94% 29.95 in 10.0 mi WNW 5.8 mph - N/A   Clear
5:29 AM 57.2 °F 53.6 °F 88% 29.95 in 7.0 mi WNW 8.1 mph - N/A   Clear
5:48 AM 57.2 °F 53.6 °F 88% 29.96 in 7.0 mi WNW 4.6 mph - N/A   Clear
6:08 AM 57.2 °F 53.6 °F 88% 29.97 in 7.0 mi WNW 10.4 mph - N/A   Clear
6:28 AM 57.2 °F 53.6 °F 88% 29.98 in 7.0 mi WNW 9.2 mph - N/A   Clear
6:49 AM 57.2 °F 51.8 °F 82% 29.98 in 10.0 mi NW 10.4 mph - N/A   Clear
7:08 AM 57.2 °F 51.8 °F 82% 29.98 in 10.0 mi WNW 6.9 mph - N/A   Clear
7:29 AM 59.0 °F 53.6 °F 82% 29.98 in 10.0 mi WNW 10.4 mph - N/A   Clear
7:48 AM 59.0 °F 51.8 °F 77% 29.99 in 10.0 mi NW 9.2 mph 17.3 mph N/A   Clear
8:08 AM 59.0 °F 51.8 °F 77% 30.00 in 10.0 mi NW 10.4 mph 20.7 mph N/A   Clear
8:29 AM 62.6 °F 51.8 °F 68% 30.00 in 10.0 mi NW 9.2 mph - N/A   Clear
8:48 AM 62.6 °F 51.8 °F 68% 30.00 in 10.0 mi NW 9.2 mph - N/A   Clear
9:08 AM 62.6 °F 51.8 °F 68% 30.01 in 10.0 mi NW 10.4 mph 18.4 mph N/A   Clear
9:29 AM 62.6 °F 51.8 °F 68% 30.01 in 10.0 mi WNW 11.5 mph 17.3 mph N/A   Scattered Clouds
9:48 AM 62.6 °F 51.8 °F 68% 30.02 in 10.0 mi NW 12.7 mph 18.4 mph N/A   Mostly Cloudy
10:08 AM 64.4 °F 51.8 °F 64% 30.02 in 10.0 mi WNW 11.5 mph 19.6 mph N/A   Mostly Cloudy
10:29 AM 64.4 °F 51.8 °F 64% 30.02 in 10.0 mi NW 12.7 mph 19.6 mph N/A   Scattered Clouds
10:48 AM 64.4 °F 50.0 °F 59% 30.02 in 10.0 mi WNW 11.5 mph 17.3 mph N/A   Mostly Cloudy
11:08 AM 68.0 °F 50.0 °F 52% 30.02 in 10.0 mi NW 15.0 mph 21.9 mph N/A   Scattered Clouds
11:29 AM 66.2 °F 50.0 °F 56% 30.03 in 10.0 mi NW 16.1 mph 19.6 mph N/A   Scattered Clouds
11:48 AM 69.8 °F 51.8 °F 53% 30.03 in 10.0 mi NNW 9.2 mph 19.6 mph N/A   Scattered Clouds
12:08 PM 68.0 °F 50.0 °F 52% 30.03 in 10.0 mi NW 12.7 mph 21.9 mph N/A   Scattered Clouds
12:28 PM 71.6 °F 51.8 °F 50% 30.03 in 10.0 mi NNW 10.4 mph 23.0 mph N/A   Scattered Clouds
12:48 PM 71.6 °F 51.8 °F 50% 30.03 in 10.0 mi NNW 16.1 mph 21.9 mph N/A   Scattered Clouds
1:09 PM 71.6 °F 50.0 °F 46% 30.03 in 10.0 mi NW 9.2 mph 24.2 mph N/A   Scattered Clouds
1:28 PM 71.6 °F 50.0 °F 46% 30.03 in 10.0 mi WNW 12.7 mph 21.9 mph N/A   Mostly Cloudy
1:48 PM 71.6 °F 50.0 °F 46% 30.02 in 10.0 mi NNW 12.7 mph 21.9 mph N/A   Scattered Clouds
2:09 PM 71.6 °F 46.4 °F 41% 30.01 in 10.0 mi NNW 13.8 mph 21.9 mph N/A   Scattered Clouds
2:28 PM 71.6 °F 46.4 °F 41% 30.01 in 10.0 mi NW 13.8 mph 20.7 mph N/A   Scattered Clouds
2:48 PM 73.4 °F 50.0 °F 44% 30.01 in 10.0 mi North 9.2 mph - N/A   Scattered Clouds
3:09 PM 71.6 °F 50.0 °F 46% 30.01 in 10.0 mi NW 10.4 mph 21.9 mph N/A   Scattered Clouds
3:28 PM 75.2 °F 50.0 °F 41% 30.00 in 10.0 mi NW 9.2 mph 16.1 mph N/A   Mostly Cloudy
3:48 PM 71.6 °F 46.4 °F 41% 30.00 in 10.0 mi NW 11.5 mph 19.6 mph N/A   Mostly Cloudy
4:08 PM 73.4 °F 48.2 °F 41% 29.99 in 10.0 mi WNW 8.1 mph 19.6 mph N/A Thunderstorm Scattered Clouds
4:28 PM 75.2 °F 50.0 °F 41% 29.99 in 10.0 mi WNW 12.7 mph 19.6 mph N/A   Mostly Cloudy
4:49 PM 73.4 °F 50.0 °F 44% 29.99 in 10.0 mi WNW 10.4 mph - N/A   Mostly Cloudy
5:08 PM 71.6 °F 50.0 °F 46% 30.00 in 10.0 mi NW 8.1 mph - N/A   Overcast
5:28 PM 71.6 °F 51.8 °F 50% 30.00 in 10.0 mi WNW 8.1 mph - N/A   Mostly Cloudy
5:49 PM 71.6 °F 53.6 °F 53% 30.00 in 10.0 mi WNW 9.2 mph - N/A   Mostly Cloudy
6:08 PM 69.8 °F 53.6 °F 56% 30.01 in 10.0 mi West 9.2 mph - N/A   Scattered Clouds
6:28 PM 68.0 °F 53.6 °F 60% 30.01 in 10.0 mi WNW 11.5 mph 16.1 mph N/A   Scattered Clouds
6:49 PM 66.2 °F 53.6 °F 64% 30.02 in 10.0 mi WNW 13.8 mph - N/A   Scattered Clouds
7:08 PM 64.4 °F 53.6 °F 68% 30.03 in 10.0 mi WNW 10.4 mph - N/A   Mostly Cloudy
7:28 PM 62.6 °F 51.8 °F 68% 30.03 in 10.0 mi WNW 11.5 mph - N/A   Mostly Cloudy
7:49 PM 62.6 °F 51.8 °F 68% 30.03 in 10.0 mi WNW 10.4 mph - N/A   Scattered Clouds
8:08 PM 62.6 °F 51.8 °F 68% 30.03 in 10.0 mi WNW 8.1 mph - N/A   Scattered Clouds
8:28 PM 62.6 °F 53.6 °F 72% 30.03 in 10.0 mi West 4.6 mph - N/A   Clear
8:49 PM 62.6 °F 53.6 °F 72% 30.03 in 10.0 mi WNW 3.5 mph - N/A   Clear
9:08 PM 62.6 °F 53.6 °F 72% 30.03 in 10.0 mi West 3.5 mph - N/A   Clear
9:28 PM 62.6 °F 53.6 °F 72% 30.03 in 10.0 mi Calm Calm - N/A   Scattered Clouds
9:49 PM 59.0 °F 53.6 °F 82% 30.04 in 10.0 mi Calm Calm - N/A   Clear
10:08 PM 59.0 °F 53.6 °F 82% 30.04 in 10.0 mi Calm Calm - N/A   Clear
10:28 PM 57.2 °F 53.6 °F 88% 30.05 in 10.0 mi Calm Calm - N/A   Clear
10:49 PM 57.2 °F 55.4 °F 94% 30.05 in 10.0 mi Calm Calm - N/A   Clear
11:08 PM 55.4 °F 53.6 °F 94% 30.06 in 10.0 mi Calm Calm - N/A   Clear
11:28 PM 53.6 °F 51.8 °F 94% 30.06 in 7.0 mi Calm Calm - N/A   Clear
11:49 PM 51.8 °F 50.0 °F 94% 30.06 in 4.0 mi Calm Calm - N/A   Clear